Kremmling, CO

12:09 AM MST on January 24, 2017 (GMT -0700)
Kremmling

Weather History for K20V - January, 2013

Change the Weather History Date:

Monday, January 28, 2013

  Actual Average Record
Temperature  
Mean Temperature 25 °F -  
Max Temperature 33 °F - 44 °F (2015)
Min Temperature 17 °F - -13 °F (2007)
Degree Days  
Heating Degree Days 40    
Month to date heating degree days  
Cooling Degree Days 0    
Month to date cooling degree days  
Moisture  
Dew Point 20 °F    
Average Humidity 80    
Maximum Humidity 93    
Minimum Humidity 58    
Precipitation  
Precipitation 0.03 in - 0.09 in (2005)
Sea Level Pressure  
Sea Level Pressure 29.72 in    
Wind  
Wind Speed 4 mph (NNE)    
Max Wind Speed 15 mph    
Max Gust Speed 20 mph    
T = Trace of Precipitation, MM = Missing Value Source: NWS Daily Summary

Daily Weather History Graph

Daily Weather History Graph

Search for Another Location

Airport or City:

Trip Planner

Search our weather history database for the weather conditions in past years. The results will help you decide how hot, cold, wet, or windy it might be!

Date:

Astronomy

Jan. 28, 2013 Rise Set
Actual Time 7:17 AM MST 5:20 PM MST
Civil Twilight 6:48 AM MST 5:49 PM MST
Nautical Twilight 6:15 AM MST 6:21 PM MST
Astronomical Twilight 5:43 AM MST 6:53 PM MST
Moon 7:17 PM MST (1/28) 7:44 AM MST (1/28)
Length of Visible Light 11h 00m
Length of Day
10h 02m
Full, 97% of the Moon is Illuminated
Jan 28
Full
Feb 3
Last Quarter
Feb 10
New
Feb 17
First Quarter
Feb 25
Full

Hourly Weather History & Observations

Time (MST) Temp. Windchill Dew Point Humidity Pressure Visibility Wind Dir Wind Speed Gust Speed Precip Events Conditions
12:16 AM 26.6 °F - 19.4 °F 74% 29.78 in - Calm Calm - N/A   Overcast
12:36 AM 28.4 °F - 21.2 °F 74% 29.78 in - Calm Calm - N/A   Overcast
12:56 AM 24.8 °F 17.9 °F 17.6 °F 74% 29.78 in - East 5.8 mph - N/A   Overcast
1:16 AM 23.0 °F 13.1 °F 17.6 °F 80% 29.77 in - ESE 9.2 mph - N/A   Overcast
1:36 AM 26.6 °F 21.2 °F 19.4 °F 74% 29.77 in - ENE 4.6 mph - N/A   Mostly Cloudy
1:56 AM 26.6 °F - 19.4 °F 74% 29.78 in - Calm Calm - N/A   Overcast
2:16 AM 24.8 °F - 19.4 °F 80% 29.81 in - Calm Calm - N/A   Overcast
2:36 AM 24.8 °F 19.1 °F 21.2 °F 86% 29.80 in - East 4.6 mph - N/A Snow Light Snow
2:56 AM 24.8 °F 16.1 °F 21.2 °F 86% 29.79 in - ESE 8.1 mph - N/A Snow Snow
3:16 AM 23.0 °F 13.1 °F 21.2 °F 93% 29.77 in - East 9.2 mph - N/A Snow Light Snow
3:35 AM 23.0 °F 15.8 °F 19.4 °F 86% 29.77 in - ESE 5.8 mph - N/A Snow Light Snow
3:56 AM 23.0 °F - 21.2 °F 93% 29.78 in - Calm Calm - N/A Snow Light Snow
4:16 AM 23.0 °F 13.9 °F 19.4 °F 86% 29.74 in - ENE 8.1 mph - N/A   Unknown
4:36 AM 23.0 °F 14.7 °F 19.4 °F 86% 29.75 in - ESE 6.9 mph - N/A   Overcast
4:56 AM 23.0 °F - 19.4 °F 86% 29.74 in - Calm Calm - N/A   Unknown
5:16 AM 23.0 °F - 19.4 °F 86% 29.74 in - Calm Calm - N/A   Unknown
5:36 AM 23.0 °F 17.0 °F 19.4 °F 86% 29.73 in - SSE 4.6 mph - N/A   Unknown
5:55 AM 24.8 °F 20.5 °F 21.2 °F 86% 29.72 in - SSE 3.5 mph - N/A Snow Light Snow
6:16 AM 24.8 °F - 21.2 °F 86% 29.72 in - Calm Calm - N/A Snow Light Snow
6:36 AM 24.8 °F - 21.2 °F 86% 29.73 in - Calm Calm - N/A Snow Light Snow
6:56 AM 24.8 °F 17.9 °F 21.2 °F 86% 29.72 in - East 5.8 mph - N/A Snow Light Snow
7:15 AM 28.4 °F 24.6 °F 23.0 °F 80% 29.72 in - ESE 3.5 mph - N/A Snow Light Snow
7:36 AM 26.6 °F 22.6 °F 23.0 °F 86% 29.72 in - SSE 3.5 mph - N/A Snow Light Snow
7:56 AM 24.8 °F - 21.2 °F 86% 29.70 in - Calm Calm - N/A   Unknown
8:16 AM 24.8 °F 20.5 °F 21.2 °F 86% 29.69 in - West 3.5 mph - N/A   Unknown
8:36 AM 26.6 °F 22.6 °F 21.2 °F 80% 29.69 in - West 3.5 mph - N/A   Overcast
8:56 AM 26.6 °F 22.6 °F 23.0 °F 86% 29.69 in - ESE 3.5 mph - N/A   Unknown
9:16 AM 28.4 °F - 23.0 °F 80% 29.68 in - Calm Calm - N/A   Overcast
9:36 AM 30.2 °F 26.7 °F 24.8 °F 80% 29.68 in - West 3.5 mph - N/A   Overcast
9:55 AM 30.2 °F - 24.8 °F 80% 29.68 in - Calm Calm - N/A Snow Light Snow
10:15 AM 30.2 °F 26.7 °F 24.8 °F 80% 29.68 in - NW 3.5 mph - N/A Snow Light Snow
10:36 AM 30.2 °F - 26.6 °F 86% 29.69 in - Calm Calm - 0.01 in Snow Snow
10:56 AM 30.2 °F 26.7 °F 26.6 °F 86% 29.69 in - North 3.5 mph - 0.01 in Snow Light Snow
11:16 AM 32.0 °F 28.7 °F 26.6 °F 80% 29.69 in - North 3.5 mph - N/A Snow Light Snow
11:36 AM 32.0 °F - 28.4 °F 87% 29.69 in - Calm Calm - 0.01 in   Overcast
11:56 AM 32.0 °F - 28.4 °F 87% 29.69 in - Calm Calm - 0.01 in Snow Light Snow
12:16 PM 33.8 °F - 28.4 °F 81% 29.67 in - Calm Calm - N/A Snow Light Snow
12:36 PM 33.8 °F 30.8 °F 26.6 °F 75% 29.66 in - SSE 3.5 mph - N/A Snow Light Snow
12:56 PM 33.8 °F 30.8 °F 26.6 °F 75% 29.66 in - West 3.5 mph - N/A Snow Light Snow
1:16 PM 30.2 °F 22.6 °F 21.2 °F 69% 29.67 in - North 8.1 mph - N/A   Overcast
1:35 PM 30.2 °F 23.4 °F 23.0 °F 75% 29.66 in - NNE 6.9 mph - N/A   Overcast
1:56 PM 30.2 °F 25.4 °F 23.0 °F 75% 29.67 in - North 4.6 mph - N/A   Overcast
2:16 PM 30.2 °F - 21.2 °F 69% 29.68 in - Calm Calm - N/A   Overcast
2:36 PM 30.2 °F 26.7 °F 23.0 °F 75% 29.68 in - NW 3.5 mph - N/A Snow Light Snow
2:56 PM 28.4 °F 19.7 °F 21.2 °F 74% 29.69 in - NW 9.2 mph - N/A Snow Light Snow
3:16 PM 28.4 °F - 23.0 °F 80% 29.69 in - Calm Calm - N/A Snow Light Snow
3:36 PM 28.4 °F - 23.0 °F 80% 29.70 in - Calm Calm - N/A   Overcast
3:56 PM 28.4 °F 22.2 °F 21.2 °F 74% 29.69 in - North 5.8 mph - N/A Snow Light Snow
4:16 PM 26.6 °F 19.1 °F 19.4 °F 74% 29.69 in - North 6.9 mph - N/A Snow Light Snow
4:36 PM 24.8 °F 17.9 °F 17.6 °F 74% 29.69 in - North 5.8 mph - N/A   Overcast
4:56 PM 24.8 °F - 19.4 °F 80% 29.70 in - Calm Calm - N/A Snow Light Snow
5:16 PM 24.8 °F - 21.2 °F 86% 29.69 in - Calm Calm - N/A Snow Light Snow
5:36 PM 23.0 °F 17.0 °F 19.4 °F 86% 29.69 in - North 4.6 mph - N/A Snow Light Snow
5:56 PM 23.0 °F - 19.4 °F 86% 29.69 in - Calm Calm - N/A   Unknown
6:16 PM 23.0 °F 13.9 °F 19.4 °F 86% 29.70 in - NNW 8.1 mph - N/A Snow Light Snow
6:36 PM 21.2 °F 10.9 °F 17.6 °F 86% 29.71 in - North 9.2 mph - N/A Snow Light Snow
6:56 PM 21.2 °F 11.7 °F 17.6 °F 86% 29.71 in - North 8.1 mph - N/A Snow Light Snow
7:16 PM 21.2 °F 11.7 °F 14.0 °F 74% 29.72 in - North 8.1 mph - N/A Snow Light Snow
7:36 PM 19.4 °F 8.6 °F 14.0 °F 80% 29.72 in - NNW 9.2 mph - N/A Snow Light Snow
7:56 PM 19.4 °F 7.2 °F 12.2 °F 74% 29.72 in - NNW 11.5 mph - N/A Snow Light Snow
8:16 PM 19.4 °F 11.5 °F 12.2 °F 74% 29.72 in - North 5.8 mph - N/A   Overcast
8:36 PM 17.6 °F 7.3 °F 10.4 °F 73% 29.72 in - North 8.1 mph 17.3 mph N/A   Overcast
8:56 PM 19.4 °F 7.2 °F 10.4 °F 68% 29.71 in - NNW 11.5 mph - N/A   Overcast
9:16 PM 17.6 °F 3.2 °F 12.2 °F 79% 29.72 in - North 15.0 mph 19.6 mph N/A Snow Light Snow
9:36 PM 17.6 °F 5.7 °F 10.4 °F 73% 29.73 in - North 10.4 mph - N/A Snow Light Snow
9:56 PM 17.6 °F 6.4 °F 8.6 °F 68% 29.72 in - NNW 9.2 mph - N/A Snow Light Snow
10:15 PM 19.4 °F 9.5 °F 6.8 °F 58% 29.73 in - NNW 8.1 mph - N/A   Overcast
10:35 PM 17.6 °F 10.7 °F 8.6 °F 68% 29.73 in - WNW 4.6 mph - N/A Snow Light Snow
10:56 PM 17.6 °F 12.3 °F 12.2 °F 79% 29.75 in - West 3.5 mph - N/A Snow Light Snow
11:16 PM 17.6 °F - 12.2 °F 79% 29.75 in - Calm Calm - N/A Snow Snow
11:36 PM 17.6 °F - 12.2 °F 79% 29.76 in - Calm Calm - 0.01 in Snow Light Snow
11:55 PM 17.6 °F 12.3 °F 12.2 °F 79% 29.76 in - East 3.5 mph - 0.01 in Snow Light Snow